Location: Canazei
(46.4667°N, 11.7667°E)
Time: 03:47:46
(UTC+00:00)

SL-08 R/B - Pass Details

Date: 21 April 2021
Orbit: 949 x 1019 km, 83.0° (Epoch: 10 May)

Event Time Altitude Azimuth Distance (km) Brightness Sun altitude
Rises 01:18:39 0° 349° (N) 3,634 8.1 -25.1°
Reaches altitude 10° 01:21:09 10° 348° (NNW) 2,684 7.3 -24.8°
Maximum altitude 01:27:15 72° 265° (W) 1,000 4.3 -24.2°
Enters shadow 01:28:41 53° 201° (SSW) 1,163 4.5 -24.1°
